sat.trackr.live / text

‹ back to catalog

STARLINK-5908

NORAD 55951 · 2023-037AP

PAYLOAD ACTIVE UNKNOWN

§ Identity

Operator
Country
US
Launch date
2023-03-17
Launch site
AFWTR
Launch vehicle
Mass (kg)
RCS (m²)

Purposes: comms

External: N2YO · Heavens-Above · Gunter

§ Orbital elements

Epoch: 2026-09-20T22:00:03.000096Z

Period
95.96 min
Inclination
70.0013°
Eccentricity
0.0003996
Mean motion
15.00671298 rev/d
Perigee alt
562.1 km
Apogee alt
567.6 km
Semi-major
6,943.0 km
B*
2.5403e-3
RAAN
152.0311°
Arg perigee
275.1362°
Mean anomaly
245.1365°
Rev number
576

§ Raw data

STARLINK-59081 55951U 23037AP  26263.91670139  .00032269  00000+0  25403-2 0  99922 55951  70.0013 152.0311 0003996 275.1362 245.1365 15.00671298  5767

JSON: /api/v1/satellites/55951 · /tle

For live sub-satellite position, see the globe view (requires WebGL).

§ Visibility from observer

Set your observer location to see the next 7 days of passes ≥ 10°. The values pass through the URL so the page stays shareable.

No JS? Fill the form by hand. The geolocation button needs JavaScript.